Location: Wildlife_Club
(35.6000°N, 81.4330°W)
Time: 20:24:07
(UTC-04:00)

Envisat - Visible Passes

Search period start: 20 May 2019 00:00
Search period end: 30 May 2019 00:00
Orbit: 764 x 766 km, 98.2° (Epoch: 19 May)

Date Brightness Start Highest point End Pass type
(mag) Time Alt. Az. Time Alt. Az. Time Alt. Az.
20 May 6.1 21:31:57 10° W 21:32:47 10° W 21:33:38 10° W visible
21 May 5.3 20:51:32 10° SSW 20:55:43 26° W 20:59:55 10° NW visible
23 May 5.8 21:18:51 10° WSW 21:21:27 14° W 21:24:03 10° WNW visible
26 May 5.6 21:06:40 10° SW 21:10:06 18° W 21:13:34 10° NW visible
29 May 5.4 20:54:47 10° SSW 20:58:47 23° W 21:02:50 10° NW visible
